COSMOS 2341

Satellite information

Favourite Embed

Satellite Type and Status

PAYLOADIN ORBIT

Key statistics

Satellite COSMOS 2341 at a glance.

Uptime

10309

Days in orbit

Revolutions

≈ 13.7

Per day

Orbit

LEO

Low Earth Orbit

Inclination

82.9

Latest

Satellite identification and parameters

Extended collection of information and parameters for COSMOS 2341.

Object identification

Identified? True

Debris? False

Object name: COSMOS 2341

International designator: 1997-017A

Object number (NORAD): 24772

Object ID (CCSDS): 24772

Country: COMMONWEALTH OF INDEPENDENT STATES (CIS)

Current information (Y/N): Y

RCS size: LARGE

Orbital parameters

Period: 104.987 minutes

Inclination: 82.9217 deg

SMA: 7371.994 km

Apoapsis: 1013.428 km

Periapsis: 974.29 km

RAAN: 19.1291 deg

Eccentricy: 0.0026545

Argument of periapsis: 134.2027 deg

Mean anomaly: 336.9447 deg

Mean motion: 13.71593112 rev/day

Mean motion (dot): 0.00000053 rev/day2

B* drag term: 0.000041374 1/REarth

Two-line elements (TLE)

Creation date: July 8, 2025, 2:27 a.m.

Reference frame: TEME

Reference center: EARTH

Epoch: July 7, 2025, 10:45 p.m. UTC

TLE line 0: 0 COSMOS 2341

TLE line 1: 1 24772U 97017A 25188.94823272 .00000053 00000-0 41374-4 0 9998

TLE line 2: 2 24772 82.9217 19.1291 0026545 134.2027 336.9447 13.71593112611880

Live tracking on map

Real-time ground track for satellite COSMOS 2341.

In-orbit conjunctions

A list of the most updated potential collisions computed for object COSMOS 2341.

Target Orbit TCA Probability of collision Miss distance Type
SL-16 DEB LEO 2025-03-05 03:49:23 0.0004573176 246.0 (m) DEBRIS
FENGYUN 1C DEB SSO 2024-11-12 22:14:13 0.0001525415 684.0 (m) DEBRIS

Associated space launch

Navigation satellite providing location information for the Tsiklon-B navigation system

COSMOS 2341 was lifted into orbit during the mission ‘Kosmos-3M | Parus 88’, on board a Kosmos-3M space rocket.

The launch took place on April 17, 1997, 1:03 p.m. from 132/1 (132L).

For more information about the launch, click the button.

Launch to space Kosmos-3M | Parus 88
Kosmos-3M | Parus 88

Agency: N/A

Status: Launch Successful

Launch date: April 17, 1997, 1:03 p.m. UTC

Rocket: Kosmos-3M

Launch pad: 132/1 (132L)

Location: Plesetsk Cosmodrome, Russian Federation

...

Latest news about this satellite

There are no fresh news available about this satellite. Check back as we update our databases every day.


Newsletter sign-up

Weekly statistics, charts and insights to help you stay on top of the space industry.